Weather History for Pontiac, MI

Change the Weather History Date:

Monday, October 14, 2013

  Actual Average Record
Temperature  
Mean Temperature 54 °F -  
Max Temperature 63 °F 57 °F 75 °F (2000)
Min Temperature 45 °F 40 °F 30 °F (2002)
Degree Days  
Heating Degree Days 11    
Growing Degree Days 4 (Base 50)    
Moisture  
Dew Point 41 °F    
Average Humidity 67    
Maximum Humidity 90    
Minimum Humidity 43    
Precipitation  
Precipitation 0.00 in - - ()
Sea Level Pressure  
Sea Level Pressure 30.35 in    
Wind  
Wind Speed 6 mph (NNE)    
Max Wind Speed 9 mph    
Max Gust Speed -    
Visibility 10 miles    
Events      
Averages and records for this station are not official NWS values.
T = Trace of Precipitation, MM = Missing Value Source: NWS Daily Summary

Daily Weather History Graph

Daily Weather History Graph

Search for Another Location

Airport:

Trip Planner

Search our weather history database for the weather conditions in past years. The results will help you decide how hot, cold, wet, or windy it might be!

Date:

Astronomy

Oct. 14, 2013 Rise Set
Actual Time 7:45 AM EDT 6:52 PM EDT
Civil Twilight 7:17 AM EDT 7:20 PM EDT
Nautical Twilight 6:44 AM EDT 7:53 PM EDT
Astronomical Twilight 6:12 AM EDT 8:26 PM EDT
Moon 4:26 PM EDT (10/14) 2:55 AM EDT (10/14)
Length of Visible Light 12h 03m
Length of Day
11h 06m
Waxing Gibbous, 79% of the Moon is Illuminated
Oct 14
Waxing Gibbous
Oct 18
Full
Oct 26
Last Quarter
Nov 3
New
Nov 10
First Quarter

Hourly Weather History & Observations

Time (EDT) Temp. Windchill Dew Point Humidity Pressure Visibility Wind Dir Wind Speed Gust Speed Precip Events Conditions
12:53 AM 50.0 °F - 41.0 °F 71% 30.35 in 10.0 mi NNW 6.9 mph - N/A   Clear
1:53 AM 48.9 °F - 42.1 °F 77% 30.36 in 10.0 mi North 5.8 mph - N/A   Clear
2:53 AM 46.9 °F - 42.1 °F 83% 30.37 in 10.0 mi North 5.8 mph - N/A   Clear
3:53 AM 46.0 °F 44.8 °F 42.1 °F 86% 30.37 in 10.0 mi North 3.5 mph - N/A   Clear
4:53 AM 45.0 °F 42.6 °F 42.1 °F 90% 30.38 in 10.0 mi North 4.6 mph - N/A   Clear
5:53 AM 46.9 °F - 43.0 °F 86% 30.38 in 10.0 mi North 6.9 mph - N/A   Clear
6:53 AM 46.9 °F - 43.0 °F 86% 30.40 in 10.0 mi North 8.1 mph - N/A   Clear
7:53 AM 46.0 °F 41.4 °F 42.1 °F 86% 30.40 in 10.0 mi North 9.2 mph - N/A   Clear
8:53 AM 48.0 °F - 41.0 °F 77% 30.41 in 10.0 mi North 9.2 mph - N/A   Clear
9:53 AM 52.0 °F - 39.9 °F 63% 30.41 in 10.0 mi NNE 9.2 mph - N/A   Clear
10:53 AM 55.0 °F - 39.0 °F 55% 30.40 in 10.0 mi NE 6.9 mph - N/A   Clear
11:53 AM 57.0 °F - 39.0 °F 51% 30.40 in 10.0 mi ENE 4.6 mph - N/A   Clear
12:53 PM 59.0 °F - 39.9 °F 49% 30.38 in 10.0 mi Variable 3.5 mph - N/A   Partly Cloudy
1:53 PM 60.1 °F - 39.9 °F 47% 30.35 in 10.0 mi SSE 5.8 mph - N/A   Partly Cloudy
2:53 PM 61.0 °F - 39.9 °F 46% 30.33 in 10.0 mi Calm Calm - N/A   Partly Cloudy
3:53 PM 63.0 °F - 39.9 °F 43% 30.32 in 10.0 mi NNW 3.5 mph - N/A   Partly Cloudy
4:53 PM 62.1 °F - 39.0 °F 43% 30.30 in 10.0 mi Calm Calm - N/A   Scattered Clouds
5:53 PM 61.0 °F - 39.0 °F 44% 30.30 in 10.0 mi ENE 4.6 mph - N/A   Partly Cloudy
6:53 PM 57.0 °F - 39.0 °F 51% 30.30 in 10.0 mi NE 4.6 mph - N/A   Clear
7:53 PM 52.0 °F - 39.0 °F 61% 30.31 in 10.0 mi ENE 6.9 mph - N/A   Clear
8:53 PM 51.1 °F - 43.0 °F 74% 30.30 in 10.0 mi ENE 8.1 mph - N/A   Clear
9:53 PM 48.9 °F - 42.1 °F 77% 30.30 in 10.0 mi East 5.8 mph - N/A   Clear
10:53 PM 48.0 °F - 42.1 °F 80% 30.28 in 10.0 mi East 3.5 mph - N/A   Clear
11:53 PM 46.0 °F 44.8 °F 42.1 °F 86% 30.28 in 10.0 mi ENE 3.5 mph - N/A   Clear